Temperature
17 18 18 18 18 18 17 16 16 17 17 18 18 18 19 19 20 19 19 19 19 19 19 19 19 18 18 18 17 17 17 16 16 16 16 16 15 15 15 15 15 15 15 14
18 18 18 18 19 18 18 17 17 18 18 18 19 19 19 19 19 19 20 20 20 19 19 19 19 18 18 18 17 17 17 16 16 16 16 15 15 15 15 15 15 15 15 14
17 17 18 18 19 18 18 18 18 18 18 18 18 18 19 20 20 20 20 20 20 20 19 19 19 19 18 18 17 17 17 17 16 16 16 15 15 15 15 15 15 15 15 14
15 17 18 18 19 19 19 18 18 18 18 18 19 20 21 21 21 21 21 20 20 20 20 19 19 19 18 18 18 17 17 17 16 16 16 15 15 15 15 15 15 15 14 14
14 16 17 18 19 19 19 19 19 18 18 19 19 19 20 21 21 21 21 21 21 20 20 19 19 19 18 18 18 17 17 17 16 16 16 15 15 15 15 15 15 14 14 14
14 16 17 18 19 20 19 19 19 19 18 18 18 17 19 22 21 21 21 21 20 20 20 19 19 19 18 18 18 17 17 17 16 16 16 16 15 15 15 15 15 14 14 14
14 15 16 17 19 19 18 18 20 20 20 19 18 19 21 22 21 21 21 21 20 20 20 20 19 19 19 18 18 18 17 17 16 16 16 15 15 15 15 15 14 14 14 14
13 15 16 18 18 18 18 21 21 21 21 21 21 21 21 21 21 21 21 21 20 20 20 19 19 19 18 18 18 18 17 17 16 16 16 15 15 15 15 14 14 14 14 14
15 16 18 19 19 21 21 21 21 21 21 21 21 21 21 21 21 21 21 21 20 20 20 19 19 19 19 18 18 17 17 17 16 16 16 15 15 15 14 14 14 14 14 14
14 15 17 19 20 21 21 21 21 21 21 21 21 21 21 21 21 21 21 20 20 20 19 19 19 19 19 18 18 17 17 17 16 16 15 15 15 15 14 14 14 14 14 13
14 15 17 19 20 20 21 21 21 21 21 21 21 21 21 21 21 21 21 20 20 20 19 19 19 18 18 18 18 17 17 17 16 16 15 15 15 14 14 14 14 13 13 13
15 16 16 18 20 20 20 21 21 21 21 21 21 21 21 20 20 20 20 20 20 19 19 19 19 18 18 18 17 17 17 16 16 16 15 15 14 14 14 13 13 13 13 12
18 19 19 19 20 20 20 20 20 20 20 21 20 20 20 20 20 20 20 20 20 19 19 19 18 18 18 17 17 17 17 16 16 15 15 15 14 14 14 13 13 13 12 12
18 18 18 19 19 19 19 20 20 20 20 20 20 20 20 20 20 20 20 20 19 19 19 18 18 18 17 17 17 16 16 16 15 15 15 14 14 14 13 13 13 13 12 12
17 18 18 18 18 19 19 19 19 19 19 19 19 19 19 19 19 19 19 19 19 18 18 18 18 17 17 17 16 16 16 15 15 15 14 14 14 13 13 13 12 12 12 11
17 17 17 17 18 18 18 18 19 19 19 19 19 19 19 19 19 19 19 19 18 18 18 18 17 17 17 16 16 15 15 15 14 14 14 13 13 13 12 12 12 11 11 11
16 16 16 17 17 17 18 18 18 18 18 18 18 18 18 18 18 18 18 18 18 18 18 17 17 17 16 16 15 15 15 14 14 14 13 13 13 12 12 12 11 11 11 10
16 16 17 17 17 17 17 17 17 17 17 18 18 18 18 18 18 18 18 18 17 17 17 17 16 16 16 15 15 15 14 14 14 13 13 12 12 12 12 11 11 10 10 10
15 16 16 16 16 16 16 17 17 17 17 17 17 17 17 17 17 17 17 17 17 17 16 16 16 16 15 15 15 14 14 14 13 13 12 12 11 11 11 11 10 10 10 9
15 15 15 16 16 16 16 16 16 16 16 16 16 17 17 17 17 16 16 16 16 16 16 16 15 15 15 15 14 14 13 13 13 12 12 11 11 11 10 10 10 9 9 9
14 14 15 15 15 15 15 15 15 16 16 16 16 16 16 16 16 16 16 16 16 15 15 15 15 14 14 14 14 13 13 13 12 12 11 11 11 10 10 9 9 9 8 8
13 13 14 14 14 15 15 15 15 15 15 15 15 15 15 15 15 15 15 15 15 15 14 14 14 14 13 13 13 12 12 12 12 11 11 11 10 10 9 9 9 8 8 8
13 13 13 13 13 14 14 14 14 14 14 14 14 15 15 14 14 14 14 14 14 13 13 13 13 13 13 12 12 12 11 11 11 11 10 10 10 9 9 8 8 8 7 7
12 12 13 13 13 13 13 13 13 13 13 13 14 14 14 13 13 13 13 13 13 13 13 12 12 12 12 12 11 11 11 11 10 10 10 9 9 8 8 8 7 7 6 6
11 12 12 12 12 12 12 12 12 12 12 13 13 13 13 13 13 12 12 12 12 12 12 11 11 11 11 11 10 10 10 10 10 9 9 9 8 7 7 7 6 6 6 5
10 11 11 11 11 12 12 12 12 12 12 12 12 12 12 12 12 12 11 11 11 11 11 11 10 10 10 10 10 9 9 9 8 8 8 8 7 7 6 6 6 5 5 5
10 10 10 10 11 11 11 11 11 11 11 11 11 11 10 10 11 11 10 10 10 10 10 10 9 9 9 9 9 8 8 8 7 7 7 7 6 6 6 5 5 5 4 4
Wind_Speed
5 5 4 5 6 7 7 8 7 7 7 10 8 6 5 4 4 5 7 9 10 10 10 9 9 9 9 9 8 9 8 8 8 6 6 5 5 4 4 4 3 3 3 2
2 2 4 4 6 8 7 6 7 6 8 9 6 3 3 4 5 7 8 9 10 10 10 10 11 10 10 9 9 9 9 8 7 6 6 6 5 4 4 3 3 3 3 2
2 3 1 5 7 8 6 6 7 9 9 5 3 5 6 6 6 7 8 9 11 11 12 12 11 11 11 11 9 9 9 8 8 8 7 7 6 5 5 4 3 3 3 3
2 1 5 8 4 6 6 6 7 7 6 5 7 5 5 6 7 7 7 8 9 10 10 10 10 10 10 9 10 10 9 8 8 8 8 7 6 6 5 4 4 3 3 3
4 3 6 7 4 6 6 6 6 7 6 3 1 2 3 4 6 7 8 8 8 9 9 9 9 9 9 9 9 9 9 9 9 9 9 8 7 6 5 4 4 3 3 4
4 4 6 8 4 3 4 5 5 6 6 4 5 1 5 4 4 4 4 5 6 6 7 8 8 9 10 10 10 10 10 9 9 9 9 9 8 6 4 4 4 4 3 3
5 5 8 7 3 5 5 7 4 5 6 6 7 7 5 2 3 3 4 5 6 7 7 8 8 10 10 10 11 11 9 8 8 8 9 8 6 5 5 4 4 3 3 2
5 5 8 4 6 8 7 4 2 4 5 7 6 4 3 2 3 3 4 5 7 7 6 6 8 11 10 11 10 8 8 8 8 7 7 7 6 5 5 6 5 4 2 1
9 8 5 4 7 5 3 3 4 3 4 5 4 4 3 3 3 3 5 6 6 7 7 5 7 10 11 9 8 8 8 8 7 7 6 6 7 7 5 5 5 4 3 3
4 6 5 5 4 3 4 4 4 4 4 5 5 5 4 4 4 4 5 6 6 7 7 6 6 7 8 8 9 9 8 7 7 7 6 5 5 6 6 6 5 5 4 4
5 6 4 4 3 3 3 2 2 1 2 5 5 4 5 5 5 5 4 5 6 8 8 7 6 6 6 8 9 9 8 7 7 6 6 5 4 4 5 5 7 7 5 5
7 7 5 6 5 3 2 3 3 2 1 2 4 5 4 4 4 5 5 5 6 7 7 7 7 6 6 7 10 10 8 7 6 5 5 5 5 2 1 2 4 6 6 5
7 5 5 5 4 3 3 3 3 3 4 3 2 3 4 3 4 4 5 6 7 8 8 7 7 6 6 7 9 9 9 8 6 6 6 5 5 5 3 2 3 2 3 4
5 3 3 4 4 4 3 3 2 1 1 3 3 3 3 2 3 4 5 6 7 7 7 8 8 7 6 7 8 8 8 8 8 6 6 6 5 5 5 4 2 1 1 1
7 6 6 4 3 3 2 1 1 0 0 1 2 4 4 5 5 5 4 5 6 6 7 7 7 6 6 8 9 9 8 6 6 6 5 5 5 5 4 4 3 2 1 1
6 4 4 4 5 4 3 2 3 3 3 3 3 4 4 5 4 4 4 6 7 7 7 8 7 6 7 8 8 7 6 9 9 6 6 5 5 5 4 4 4 3 2 2
5 6 6 6 6 6 5 5 5 5 4 4 5 4 4 4 3 3 4 5 6 6 7 7 7 6 7 8 9 7 6 7 10 7 6 6 6 5 5 5 4 4 3 3
7 8 7 7 7 6 5 4 4 5 5 4 4 5 6 6 6 5 4 5 5 3 3 5 6 7 7 8 8 7 7 6 6 6 6 5 5 5 5 5 5 4 2 2
5 5 5 5 5 5 4 4 4 4 4 4 5 5 5 5 5 5 5 6 6 5 4 5 8 8 7 8 9 7 7 7 6 6 5 6 6 5 4 4 4 4 3 3
4 4 4 3 3 3 3 3 2 3 3 4 4 4 4 4 5 5 6 5 5 5 5 6 7 6 7 8 10 7 7 8 7 6 6 6 5 5 5 4 4 4 3 3
4 3 3 3 3 3 3 4 4 3 3 4 5 5 5 4 5 5 5 3 2 3 5 8 6 6 6 8 9 7 7 7 7 6 6 6 6 5 5 5 4 4 3 3
3 2 2 2 2 2 2 3 3 4 3 3 3 4 5 5 4 3 3 3 3 5 5 4 4 7 9 9 6 7 7 7 6 6 6 6 6 5 5 5 4 4 3 3
3 2 2 2 3 2 1 2 3 4 4 4 4 5 5 5 4 5 3 2 3 6 5 4 7 10 11 8 6 6 7 7 6 6 6 6 6 5 5 5 4 4 3 3
3 2 2 2 3 3 2 2 2 2 3 3 3 5 6 5 2 1 3 5 6 6 4 6 10 10 10 6 6 6 6 6 6 6 6 5 5 5 4 4 4 3 3 3
2 1 1 2 3 3 3 3 3 3 3 3 3 3 3 3 3 4 4 5 7 7 5 6 9 9 6 5 6 6 6 6 6 6 6 6 5 5 4 4 4 3 3 3
1 2 2 3 3 3 3 3 3 3 4 4 2 2 3 3 4 4 4 5 6 7 5 4 5 6 5 5 6 6 6 6 5 5 6 6 5 5 4 4 4 4 3 3
0 0 1 1 1 1 2 3 4 4 4 5 4 3 4 4 4 5 5 5 5 5 4 4 4 4 5 5 6 6 5 5 5 5 5 5 5 4 4 5 4 3 3 3
Wind_Direction
224 225 195 214 214 190 191 194 198 233 239 260 257 243 243 221 192 176 180 182 185 188 191 188 184 185 184 184 179 172 168 174 183 182 174 166 162 163 157 156 161 162 151 155
281 259 210 233 228 206 211 209 219 242 260 257 254 225 226 214 192 192 195 194 193 192 190 189 188 187 183 184 180 171 175 184 180 171 168 168 170 164 155 158 160 154 164 170
258 307 17 261 231 205 205 209 195 221 242 260 242 224 218 212 205 206 205 200 196 195 194 193 191 187 187 186 175 175 181 182 177 175 177 177 171 162 165 169 162 165 181 178
162 75 240 247 238 200 201 227 211 221 240 231 228 234 229 207 204 211 207 200 199 194 193 191 185 182 180 172 172 178 181 182 179 177 180 175 167 172 177 167 169 183 193 195
149 200 268 288 253 185 187 250 223 219 239 232 196 36 306 222 203 208 206 202 198 191 184 179 178 173 165 168 171 176 183 186 183 178 176 172 174 181 178 168 179 190 189 191
149 176 231 245 256 187 142 267 253 208 220 197 126 135 262 249 211 215 197 186 179 169 162 169 174 160 161 169 174 186 191 188 181 177 176 178 183 181 173 174 187 185 192 200
178 207 251 249 232 124 157 241 255 204 206 181 184 209 236 223 195 192 175 167 155 152 163 175 164 157 165 172 189 194 182 172 171 174 177 178 177 172 165 164 162 170 183 212
166 196 245 231 147 172 214 243 233 217 206 192 204 223 225 187 187 170 158 151 151 153 162 162 159 160 169 188 193 172 162 166 173 175 176 172 162 163 158 157 159 169 177 229
190 211 235 204 202 225 204 213 233 219 223 191 199 223 217 197 190 180 169 164 161 158 157 157 166 169 179 191 168 154 157 167 169 164 164 161 161 162 158 160 165 177 181 209
226 254 250 247 243 245 216 217 237 227 206 188 202 212 201 194 189 186 176 171 163 156 160 171 177 179 185 171 156 154 159 162 157 155 156 159 163 167 169 174 177 183 190 208
240 264 292 288 252 253 260 242 230 238 205 194 188 203 197 194 193 187 179 171 166 167 172 178 172 173 168 158 153 153 156 156 155 156 156 156 159 174 183 194 189 188 200 196
223 226 204 245 259 259 251 248 222 201 230 227 193 199 196 190 188 178 174 166 167 170 169 169 161 163 159 154 155 154 155 158 159 157 157 155 150 125 87 169 186 190 189 184
217 225 221 250 269 253 241 249 236 214 201 205 211 193 184 180 174 166 168 170 175 176 171 163 157 159 162 160 158 158 160 161 158 158 159 160 160 157 146 57 68 114 167 177
227 201 241 248 254 265 252 246 226 222 219 188 178 167 161 156 153 165 182 187 176 165 161 161 160 167 167 159 156 156 155 158 158 162 163 165 167 166 162 158 145 36 11 133
246 226 227 245 258 270 262 188 144 209 208 178 161 162 162 166 181 194 186 165 152 151 158 159 163 171 162 157 156 156 156 158 157 155 156 158 156 152 150 153 153 151 111 57
249 242 226 229 240 251 247 212 203 219 217 208 197 193 185 178 175 169 159 155 157 169 173 169 173 174 159 155 154 155 159 158 154 152 152 149 148 147 150 154 159 162 171 178
224 234 233 233 237 242 240 229 216 217 215 208 205 188 157 145 145 157 163 166 169 174 172 173 175 166 159 157 155 156 153 156 152 148 156 160 159 161 163 163 169 175 189 188
222 225 222 218 222 229 234 226 214 206 209 213 188 166 163 167 178 184 173 152 141 142 167 173 163 158 158 159 157 154 152 153 155 156 158 160 162 163 162 163 167 167 169 157
245 232 232 228 222 217 214 212 211 208 200 177 175 184 186 183 174 165 155 153 159 176 197 177 161 158 162 165 155 151 151 151 151 152 153 154 152 151 154 159 163 167 166 158
265 243 230 236 235 223 216 208 190 192 193 172 164 164 169 175 162 154 153 168 188 193 177 162 160 162 166 165 154 153 155 156 156 155 153 154 156 159 160 161 163 165 166 167
280 265 235 229 234 227 210 188 174 184 186 168 168 175 177 170 156 151 150 173 218 165 155 155 159 163 163 160 154 154 156 156 157 158 159 160 159 161 162 163 165 167 167 166
277 273 237 218 201 207 206 177 170 169 162 159 159 157 149 145 144 136 150 179 182 157 151 158 163 162 158 151 151 153 154 154 155 156 157 158 160 163 164 164 165 167 166 166
278 267 236 211 193 195 182 159 162 163 167 170 169 166 162 163 163 156 168 188 164 156 150 160 159 153 147 142 146 150 153 154 156 158 160 160 162 163 165 165 165 163 164 167
289 269 241 203 159 152 170 188 163 160 161 165 167 161 153 148 144 163 154 155 155 147 145 150 147 145 140 141 146 150 154 155 154 154 153 151 151 154 157 159 158 158 163 163
269 247 204 162 173 193 191 165 138 130 124 119 120 127 133 142 153 153 142 145 146 137 133 140 140 138 137 141 147 151 153 154 153 151 150 149 151 153 155 156 158 159 161 165
249 219 214 208 198 193 183 164 157 154 143 131 117 108 105 106 117 122 124 128 131 128 126 126 131 130 133 140 143 142 142 143 142 143 147 149 149 150 153 155 153 157 159 162
290 182 155 120 143 169 171 164 160 161 159 150 138 126 123 122 120 120 121 121 121 120 120 122 125 127 130 133 134 135 136 137 139 144 146 146 148 152 157 155 155 152 153 154
Height
1513 1510 1511 1512 1513 1515 1520 1522 1527 1521 1518 1508 1503 1502 1501 1501 1502 1504 1506 1509 1512 1515 1519 1522 1526 1530 1533 1537 1541 1544 1547 1549 1552 1554 1556 1558 1559 1561 1562 1562 1563 1564 1564 1564
1512 1509 1509 1510 1509 1510 1512 1513 1515 1514 1511 1500 1499 1499 1499 1500 1500 1502 1504 1506 1509 1513 1516 1519 1523 1526 1530 1534 1538 1541 1544 1547 1549 1552 1554 1556 1558 1559 1560 1561 1562 1563 1563 1563
1519 1512 1510 1515 1505 1505 1506 1505 1507 1510 1504 1497 1498 1497 1497 1497 1498 1499 1501 1504 1507 1510 1513 1516 1520 1524 1527 1531 1535 1538 1541 1544 1547 1549 1551 1553 1555 1557 1558 1559 1560 1561 1561 1562
1520 1517 1524 1507 1495 1496 1499 1499 1498 1497 1495 1495 1494 1494 1494 1495 1496 1498 1500 1502 1504 1507 1510 1514 1518 1521 1525 1528 1532 1535 1538 1541 1543 1546 1548 1550 1552 1554 1556 1557 1558 1559 1560 1560
1523 1522 1516 1502 1493 1493 1497 1498 1492 1493 1492 1492 1493 1493 1493 1494 1495 1496 1498 1500 1502 1505 1509 1512 1515 1519 1522 1525 1529 1532 1535 1537 1540 1543 1545 1548 1549 1551 1553 1555 1556 1557 1557 1558
1520 1520 1519 1501 1489 1488 1493 1498 1488 1488 1489 1490 1492 1498 1494 1492 1493 1495 1497 1499 1501 1504 1507 1510 1513 1517 1520 1523 1526 1528 1532 1535 1538 1540 1543 1545 1547 1549 1551 1552 1554 1554 1555 1555
1516 1515 1507 1490 1486 1488 1503 1498 1484 1484 1485 1487 1489 1491 1490 1491 1492 1493 1495 1498 1500 1502 1505 1508 1511 1514 1517 1520 1523 1526 1530 1533 1535 1538 1540 1543 1545 1547 1548 1550 1551 1552 1552 1553
1512 1513 1506 1483 1485 1489 1488 1482 1482 1482 1483 1484 1486 1487 1488 1489 1491 1492 1494 1496 1499 1501 1504 1507 1509 1512 1515 1518 1521 1524 1527 1530 1533 1535 1538 1540 1542 1544 1545 1547 1548 1549 1549 1550
1495 1493 1482 1480 1480 1480 1480 1480 1480 1481 1482 1483 1484 1485 1487 1488 1489 1491 1492 1495 1497 1500 1502 1505 1508 1510 1513 1516 1519 1522 1525 1527 1530 1533 1535 1537 1539 1541 1542 1544 1545 1546 1546 1547
1487 1481 1478 1477 1477 1477 1478 1478 1478 1479 1480 1481 1482 1483 1485 1486 1487 1489 1491 1493 1495 1498 1500 1503 1505 1508 1511 1514 1517 1520 1522 1525 1527 1529 1532 1534 1536 1537 1539 1540 1541 1543 1543 1544
1482 1477 1475 1474 1474 1475 1476 1476 1476 1477 1478 1479 1480 1481 1482 1484 1485 1487 1489 1491 1493 1495 1498 1500 1503 1506 1509 1512 1514 1517 1520 1522 1524 1526 1529 1531 1532 1534 1536 1537 1539 1540 1541 1541
1478 1473 1473 1472 1473 1474 1474 1474 1475 1475 1476 1477 1478 1479 1480 1481 1483 1485 1487 1489 1491 1493 1496 1498 1501 1504 1507 1509 1512 1515 1517 1519 1521 1524 1526 1528 1529 1531 1533 1534 1536 1537 1538 1538
1468 1469 1470 1470 1471 1471 1472 1473 1473 1474 1475 1475 1476 1477 1478 1479 1481 1483 1485 1486 1488 1491 1493 1496 1499 1502 1504 1507 1510 1512 1514 1517 1519 1521 1523 1525 1526 1528 1529 1531 1532 1533 1534 1535
1464 1466 1466 1467 1468 1469 1470 1471 1471 1472 1473 1474 1474 1476 1477 1478 1479 1481 1482 1484 1486 1489 1491 1494 1497 1499 1502 1505 1507 1509 1512 1514 1516 1518 1520 1522 1523 1525 1526 1528 1529 1530 1531 1532
1461 1462 1463 1463 1464 1466 1467 1468 1468 1469 1470 1471 1472 1473 1475 1476 1477 1479 1481 1482 1484 1487 1489 1492 1494 1497 1499 1502 1504 1507 1509 1511 1513 1515 1517 1519 1520 1522 1523 1525 1526 1527 1528 1528
1456 1457 1459 1460 1461 1462 1463 1464 1465 1466 1467 1468 1470 1471 1472 1474 1475 1477 1479 1480 1482 1484 1486 1489 1491 1494 1497 1499 1501 1504 1506 1508 1510 1512 1514 1516 1517 1519 1520 1522 1523 1524 1524 1525
1452 1452 1454 1455 1456 1458 1459 1460 1461 1462 1464 1465 1466 1468 1470 1471 1473 1474 1476 1478 1481 1482 1484 1487 1489 1492 1494 1497 1499 1501 1503 1505 1507 1509 1511 1512 1514 1515 1517 1518 1519 1520 1521 1522
1448 1448 1449 1451 1452 1453 1454 1456 1457 1459 1460 1462 1463 1465 1466 1468 1470 1471 1474 1476 1478 1480 1482 1484 1487 1489 1492 1494 1496 1498 1500 1502 1504 1505 1507 1509 1511 1512 1514 1515 1516 1517 1518 1519
1444 1445 1446 1447 1448 1449 1451 1452 1453 1455 1457 1458 1460 1461 1463 1465 1467 1469 1471 1473 1475 1477 1479 1482 1484 1486 1489 1491 1493 1495 1497 1499 1500 1502 1504 1506 1508 1509 1510 1512 1513 1514 1514 1515
1440 1441 1442 1443 1445 1446 1447 1449 1450 1452 1453 1455 1456 1458 1460 1462 1464 1466 1468 1470 1472 1474 1477 1479 1481 1483 1485 1487 1490 1492 1493 1495 1497 1499 1501 1503 1504 1506 1507 1508 1509 1510 1511 1511
1437 1437 1438 1439 1441 1442 1444 1445 1447 1448 1450 1451 1453 1455 1457 1459 1461 1463 1465 1467 1469 1471 1473 1476 1478 1480 1482 1483 1486 1488 1490 1492 1493 1495 1497 1499 1500 1502 1503 1504 1506 1506 1507 1508
1433 1434 1435 1436 1437 1439 1440 1442 1443 1445 1446 1448 1450 1452 1453 1455 1458 1460 1462 1464 1466 1468 1470 1472 1474 1476 1478 1480 1482 1484 1486 1488 1490 1492 1493 1495 1496 1498 1499 1500 1501 1502 1503 1504
1430 1431 1432 1433 1434 1435 1437 1439 1440 1442 1443 1445 1447 1448 1450 1453 1455 1457 1459 1462 1463 1465 1467 1468 1470 1472 1474 1476 1478 1480 1482 1484 1486 1488 1490 1491 1493 1494 1495 1496 1497 1498 1499 1500
1427 1428 1429 1430 1432 1433 1434 1436 1438 1439 1441 1443 1444 1446 1448 1450 1452 1454 1457 1458 1460 1462 1463 1465 1467 1469 1471 1473 1475 1477 1479 1481 1482 1484 1486 1487 1489 1491 1492 1493 1493 1494 1495 1496
1424 1425 1426 1427 1428 1429 1431 1432 1434 1436 1438 1439 1441 1443 1445 1447 1449 1451 1453 1455 1457 1459 1460 1462 1464 1466 1468 1470 1471 1473 1475 1477 1479 1481 1482 1484 1485 1487 1488 1489 1490 1491 1491 1492
1421 1422 1423 1424 1425 1426 1427 1429 1431 1432 1434 1436 1438 1440 1442 1445 1447 1448 1450 1452 1454 1456 1457 1459 1461 1463 1465 1466 1468 1470 1472 1474 1476 1478 1479 1481 1482 1484 1485 1486 1486 1487 1488 1488
1418 1419 1420 1421 1422 1423 1425 1426 1428 1429 1431 1433 1435 1437 1440 1442 1444 1446 1447 1449 1451 1453 1455 1457 1459 1461 1462 1464 1466 1468 1470 1471 1473 1475 1476 1477 1479 1480 1481 1482 1483 1484 1484 1485